Home > Weather > Shreveport > Past weeks

Flag for U.S.A. Weather for the Past 2 Weeks in Shreveport, Louisiana, U.S.A.

Now
39 °F

Clear.


Feels Like: 36 °F
Forecast: 35 / 55 °F
Wind: 5 mph from Southeast

Location: Shreveport Regional Airport

Current Time: Feb 6, 2016 at 1:46:38 AM

Latest Report: Feb 6, 2016 at 12:56 AM


Visibility: 10 mi

Pressure: 30.32 "Hg

Humidity: 55%

Dew point: 24 °F

Location of ShreveportLocation

Historic Weather in Shreveport — Graph

°F

Shreveport Temperature Yesterday

Maximum temperature yesterday: 56 °F (at 1:56 PM)
Minimum temperature yesterday: 27 °F (at 6:56 AM)
Average temperature yesterday: 42 °F

High & Low Weather Summary for the Past Weeks

 TemperatureHumidityPressure
High78 °F (Jan 31, 2:56 PM)97% (Jan 22, 12:03 AM)30.51 "Hg (Jan 22, 12:03 AM)
Low27 °F (Feb 5, 6:56 AM)17% (Feb 2, 3:56 PM)29.60 "Hg (Feb 2, 12:56 AM)
Average52 °F59%30.06 "Hg
* Reported Jan 22 12:03 AM — Feb 6 12:56 AM, Shreveport, Weather by CustomWeather, © 2016

Note: Actual official high and low records may vary slightly from our data, if they occured in-between our weather recording intervals... More about our weather records

Advertising

Shreveport Weather History for the Previous 24 Hours

 ConditionsComfort  
Time TempWeatherWind HumidityBarometerVisibility
12:56 AM
Sat, Feb 6
39 °FClear.5 mph55%30.32 "Hg10 mi
11:56 PM
Fri, Feb 5
36 °FClear.No wind64%30.34 "Hg10 mi
10:56 PM37 °FClear.No wind65%30.36 "Hg10 mi
9:56 PM38 °FClear.No wind63%30.36 "Hg10 mi
8:56 PM40 °FClear.3 mph58%30.36 "Hg10 mi
7:56 PM48 °FPassing clouds.No wind36%30.36 "Hg10 mi
6:56 PM50 °FPassing clouds.No wind33%30.35 "Hg10 mi
5:56 PM51 °FPartly cloudy.5 mph28%30.34 "Hg10 mi
4:56 PM55 °FPartly sunny.9 mph22%30.34 "Hg10 mi
3:56 PM56 °FPartly sunny.8 mph23%30.35 "Hg10 mi
2:56 PM56 °FPartly sunny.6 mph23%30.37 "Hg10 mi
1:56 PM56 °FPartly sunny.5 mph20%30.40 "Hg10 mi
12:56 PM55 °FPartly sunny.No wind20%30.43 "Hg10 mi
11:56 AM52 °FScattered clouds.No wind24%30.47 "Hg10 mi
10:56 AM51 °FPassing clouds.6 mph26%30.51 "Hg10 mi
9:56 AM49 °FPassing clouds.7 mph36%30.50 "Hg10 mi
8:56 AM39 °FPassing clouds.No wind65%30.50 "Hg10 mi
7:56 AM30 °FPassing clouds.No wind79%30.49 "Hg10 mi
6:56 AM27 °FClear.No wind78%30.47 "Hg10 mi
5:56 AM28 °FClear.No wind75%30.46 "Hg10 mi
4:56 AM28 °FClear.No wind78%30.45 "Hg10 mi
3:56 AM29 °FClear.No wind75%30.45 "Hg10 mi
2:56 AM29 °FClear.No wind75%30.46 "Hg10 mi
1:56 AM31 °FClear.5 mph73%30.46 "Hg10 mi
Weather by CustomWeather, © 2016

See weather overviewHow to use our weather pages